| time (UTC) | temp C | wind direction | speed KPH | gust KPH | rain 1hr cm | rain 24hr cm | rain mn cm | humidity % | barometer mb |
| 20260901190122 | 26 | 134 | 1.6 | 4.8 | 0.00 | 0.84 | 0.84 | 94 | 1012.5 |
| 20260901185148 | 26 | 127 | 3.2 | 6.4 | 0.00 | 0.84 | 0.84 | 97 | 1012.5 |
| 20260901184122 | 26 | 240 | 3.2 | 8.0 | 0.00 | 0.84 | 0.84 | 99 | 1012.5 |
| 20260901183122 | 25 | 174 | 3.2 | 6.4 | 0.03 | 0.84 | 0.84 | 99 | 1012.6 |
| 20260901182126 | 25 | 156 | 3.2 | 4.8 | 0.03 | 0.84 | 0.84 | 99 | 1012.7 |
| 20260901181123 | 25 | 142 | 3.2 | 6.4 | 0.03 | 0.84 | 0.84 | 99 | 1012.7 |
| 20260901180123 | 24 | 229 | 3.2 | 6.4 | 0.03 | 0.84 | 0.84 | 99 | 1012.7 |
| 20260901175125 | 23 | 167 | 4.8 | 9.7 | 0.03 | 0.84 | 0.84 | 99 | 1012.2 |
| 20260901174123 | 23 | 123 | 3.2 | 4.8 | 0.03 | 0.84 | 0.84 | 99 | 1012.2 |
| 20260901172142 | 23 | 192 | 1.6 | 6.4 | 0.00 | 0.81 | 0.81 | 99 | 1013.1 |
| 20260901171121 | 24 | 126 | 1.6 | 4.8 | 0.00 | 0.81 | 0.81 | 99 | 1013.2 |
| 20260901170122 | 24 | 188 | 3.2 | 4.8 | 0.00 | 0.81 | 0.81 | 99 | 1013.2 |
| 20260901165122 | 23 | 107 | 1.6 | 4.8 | 0.03 | 0.81 | 0.81 | 99 | 1013.2 |
| 20260901164123 | 23 | 99 | 3.2 | 8.0 | 0.08 | 0.81 | 0.81 | 99 | 1012.9 |
| 20260901163144 | 23 | 236 | 3.2 | 6.4 | 0.10 | 0.81 | 0.81 | 99 | 1013.2 |
| 20260901162122 | 24 | 229 | 3.2 | 6.4 | 0.13 | 0.81 | 0.81 | 99 | 1013.4 |
| 20260901161145 | 24 | 203 | 0.0 | 0.0 | 0.15 | 0.81 | 0.81 | 99 | 1014.0 |
| 20260901160124 | 23 | 180 | 0.0 | 0.0 | 0.15 | 0.81 | 0.81 | 99 | 1014.0 |
| 20260901155122 | 23 | 203 | 0.0 | 0.0 | 0.13 | 0.79 | 0.79 | 99 | 1014.4 |
| 20260901154121 | 23 | 248 | 0.0 | 0.0 | 0.13 | 0.74 | 0.74 | 99 | 1014.4 |
| 20260901153121 | 24 | 158 | 0.0 | 0.0 | 0.10 | 0.71 | 0.71 | 99 | 1014.2 |
| 20260901152121 | 24 | 113 | 0.0 | 0.0 | 0.08 | 0.69 | 0.69 | 99 | 1014.2 |
| 20260901151121 | 23 | 158 | 0.0 | 0.0 | 0.05 | 0.66 | 0.66 | 99 | 1014.4 |
| 20260901150124 | 23 | 90 | 0.0 | 0.0 | 0.05 | 0.66 | 0.66 | 99 | 1014.4 |
| 20260901145124 | 25 | 113 | 0.0 | 0.0 | 0.05 | 0.66 | 0.66 | 99 | 1014.6 |
| 20260901144142 | 25 | 113 | 0.0 | 0.0 | 0.00 | 0.61 | 0.61 | 99 | 1014.2 |
| 20260901143124 | 24 | 225 | 0.0 | 0.0 | 0.00 | 0.61 | 0.61 | 99 | 1014.1 |
| 20260901142121 | 24 | 113 | 0.0 | 0.0 | 0.00 | 0.61 | 0.61 | 99 | 1014.0 |
| 20260901141122 | 24 | 225 | 0.0 | 0.0 | 0.00 | 0.61 | 0.61 | 99 | 1014.1 |
| 20260901140121 | 24 | 113 | 0.0 | 0.0 | 0.00 | 0.61 | 0.61 | 99 | 1014.1 |
| 20260901135121 | 23 | 270 | 0.0 | 0.0 | 0.00 | 0.61 | 0.61 | 99 | 1014.2 |
| 20260901134121 | 23 | 135 | 0.0 | 0.0 | 0.00 | 0.61 | 0.61 | 99 | 1014.0 |
| 20260901133145 | 23 | 225 | 0.0 | 0.0 | 0.00 | 0.61 | 0.61 | 99 | 1014.1 |
| 20260901132130 | 23 | 270 | 0.0 | 0.0 | 0.00 | 0.61 | 0.61 | 99 | 1014.0 |
| 20260901132122 | 23 | 248 | 0.0 | 0.0 | 0.00 | 0.61 | 0.61 | 99 | 1014.0 |
| 20260901131145 | 23 | 113 | 0.0 | 0.0 | 0.00 | 0.61 | 0.61 | 99 | 1014.0 |
| 20260901130123 | 23 | 158 | 0.0 | 0.0 | 0.00 | 0.61 | 0.61 | 99 | 1014.0 |
| 20260901125124 | 23 | 104 | 1.6 | 6.4 | 0.00 | 0.61 | 0.61 | 99 | 1013.9 |
| 20260901124142 | 23 | 105 | 3.2 | 4.8 | 0.00 | 0.61 | 0.61 | 99 | 1013.9 |
| 20260901123122 | 22 | 102 | 1.6 | 4.8 | 0.00 | 0.61 | 0.61 | 99 | 1014.0 |
| 20260901122126 | 22 | 151 | 1.6 | 3.2 | 0.00 | 0.61 | 0.61 | 99 | 1014.1 |
| 20260901121122 | 22 | 107 | 1.6 | 4.8 | 0.00 | 0.61 | 0.61 | 99 | 1014.4 |
| 20260901120122 | 22 | 101 | 0.0 | 3.2 | 0.00 | 0.61 | 0.61 | 99 | 1014.4 |
| 20260901115122 | 21 | 202 | 0.0 | 3.2 | 0.00 | 0.61 | 0.61 | 99 | 1014.2 |
| 20260901114121 | 21 | 114 | 1.6 | 3.2 | 0.00 | 0.61 | 0.61 | 99 | 1014.4 |
| 20260901113121 | 21 | 102 | 1.6 | 3.2 | 0.00 | 0.61 | 0.61 | 99 | 1014.2 |
| 20260901112121 | 21 | 110 | 1.6 | 4.8 | 0.00 | 0.61 | 0.61 | 99 | 1014.5 |
| 20260901111121 | 21 | 110 | 3.2 | 4.8 | 0.00 | 0.61 | 0.61 | 99 | 1014.6 |
| 20260901110123 | 21 | 86 | 0.0 | 3.2 | 0.00 | 0.61 | 0.61 | 99 | 1014.6 |
| 20260901105126 | 21 | 43 | 1.6 | 3.2 | 0.00 | 0.61 | 0.61 | 99 | 1014.5 |
| 20260901104121 | 21 | 99 | 1.6 | 3.2 | 0.00 | 0.61 | 0.61 | 99 | 1014.2 |
| 20260901103121 | 21 | 124 | 1.6 | 3.2 | 0.00 | 0.61 | 0.61 | 99 | 1014.1 |
| 20260901102123 | 21 | 113 | 0.0 | 0.0 | 0.00 | 0.61 | 0.61 | 99 | 1014.2 |
| 20260901101121 | 21 | 180 | 0.0 | 0.0 | 0.00 | 0.61 | 0.61 | 99 | 1014.1 |
| 20260901100122 | 21 | 225 | 0.0 | 0.0 | 0.00 | 0.61 | 0.61 | 99 | 1014.1 |
| 20260901095147 | 21 | 92 | 0.0 | 3.2 | 0.00 | 0.61 | 0.61 | 99 | 1013.9 |
| 20260901094121 | 21 | 90 | 1.6 | 4.8 | 0.00 | 0.61 | 0.61 | 99 | 1014.1 |
| 20260901093125 | 21 | 100 | 0.0 | 3.2 | 0.00 | 0.61 | 0.61 | 99 | 1014.2 |
| 20260901092121 | 21 | 118 | 0.0 | 4.8 | 0.03 | 0.61 | 0.61 | 99 | 1014.4 |
| 20260901091122 | 21 | 270 | 0.0 | 0.0 | 0.08 | 0.61 | 0.61 | 99 | 1014.4 |
| 20260901090145 | 21 | 135 | 0.0 | 0.0 | 0.08 | 0.61 | 0.61 | 99 | 1014.4 |
| 20260901085122 | 21 | 113 | 0.0 | 0.0 | 0.10 | 0.61 | 0.61 | 99 | 1014.4 |
| 20260901084122 | 21 | 68 | 0.0 | 0.0 | 0.10 | 0.61 | 0.61 | 99 | 1014.4 |
| 20260901083122 | 21 | 135 | 0.0 | 0.0 | 0.10 | 0.61 | 0.61 | 99 | 1014.6 |
| 20260901082145 | 21 | 113 | 0.0 | 0.0 | 0.08 | 0.58 | 0.58 | 99 | 1014.7 |
| 20260901081123 | 21 | 45 | 0.0 | 0.0 | 0.03 | 0.53 | 0.53 | 99 | 1014.8 |
| 20260901080144 | 21 | 113 | 0.0 | 0.0 | 0.10 | 0.53 | 0.53 | 99 | 1014.8 |
| 20260901075122 | 21 | 90 | 0.0 | 1.6 | 0.13 | 0.51 | 0.51 | 99 | 1014.8 |
| 20260901074126 | 21 | 98 | 1.6 | 3.2 | 0.18 | 0.51 | 0.51 | 99 | 1014.6 |
| 20260901073121 | 21 | 152 | 1.6 | 3.2 | 0.18 | 0.51 | 0.51 | 99 | 1014.7 |
| 20260901072121 | 21 | 99 | 3.2 | 4.8 | 0.18 | 0.51 | 0.51 | 99 | 1014.8 |
| 20260901071121 | 21 | 94 | 0.0 | 3.2 | 0.18 | 0.51 | 0.51 | 99 | 1014.9 |
| 20260901070143 | 21 | 90 | 1.6 | 3.2 | 0.10 | 0.43 | 0.43 | 99 | 1014.9 |
| 20260901065121 | 21 | 194 | 1.6 | 3.2 | 0.08 | 0.38 | 0.38 | 99 | 1015.0 |
| 20260901064126 | 21 | 242 | 1.6 | 3.2 | 0.18 | 0.33 | 0.33 | 99 | 1015.0 |
| 20260901063122 | 21 | 146 | 1.6 | 3.2 | 0.18 | 0.33 | 0.33 | 99 | 1015.1 |
| 20260901062121 | 21 | 225 | 1.6 | 6.4 | 0.28 | 0.33 | 0.33 | 99 | 1015.4 |
| 20260901061121 | 21 | 157 | 1.6 | 3.2 | 0.33 | 0.33 | 0.33 | 99 | 1015.4 |
| 20260901060142 | 21 | 126 | 0.0 | 3.2 | 0.33 | 0.33 | 0.33 | 99 | 1015.4 |
| 20260901055142 | 21 | 234 | 0.0 | 3.2 | 0.30 | 0.30 | 0.30 | 99 | 1015.6 |
| 20260901054121 | 21 | 220 | 0.0 | 3.2 | 0.15 | 0.15 | 0.15 | 99 | 1015.6 |
| 20260901053121 | 21 | 180 | 0.0 | 3.2 | 0.15 | 0.15 | 0.15 | 99 | 1015.7 |
| 20260901052125 | 21 | 207 | 0.0 | 3.2 | 0.08 | 0.08 | 0.08 | 99 | 1015.9 |
| 20260901051122 | 21 | 200 | 0.0 | 3.2 | 0.00 | 0.00 | 0.00 | 99 | 1015.8 |
| 20260901050122 | 21 | 166 | 3.2 | 4.8 | 0.00 | 0.00 | 0.00 | 99 | 1015.8 |
| 20260901045123 | 22 | 154 | 1.6 | 4.8 | 0.00 | 0.00 | 0.00 | 98 | 1015.9 |
| 20260901044122 | 22 | 231 | 3.2 | 8.0 | 0.00 | 0.00 | 0.00 | 97 | 1016.0 |
| 20260901043143 | 22 | 228 | 3.2 | 6.4 | 0.00 | 0.00 | 0.00 | 96 | 1015.9 |
| 20260901042122 | 22 | 214 | 3.2 | 6.4 | 0.00 | 0.00 | 0.00 | 95 | 1015.9 |
| 20260901041121 | 22 | 246 | 3.2 | 6.4 | 0.00 | 0.00 | 0.00 | 95 | 1016.0 |
| 20260901040123 | 22 | 275 | 4.8 | 8.0 | 0.00 | 0.00 | 0.00 | 95 | 1016.0 |
| 20260901035122 | 22 | 193 | 3.2 | 4.8 | 0.00 | 0.00 | 0.00 | 95 | 1015.9 |
| 20260901034123 | 22 | 227 | 3.2 | 4.8 | 0.00 | 0.00 | 0.00 | 95 | 1016.1 |
| 20260901033121 | 22 | 217 | 1.6 | 4.8 | 0.00 | 0.00 | 0.00 | 95 | 1016.2 |
| 20260901032122 | 22 | 194 | 3.2 | 6.4 | 0.00 | 0.00 | 0.00 | 95 | 1016.1 |
| 20260901031121 | 22 | 175 | 3.2 | 4.8 | 0.00 | 0.00 | 0.00 | 95 | 1016.4 |
| 20260901030122 | 22 | 186 | 3.2 | 4.8 | 0.00 | 0.00 | 0.00 | 95 | 1016.6 |
| 20260901025121 | 22 | 225 | 1.6 | 3.2 | 0.00 | 0.00 | 0.00 | 95 | 1016.6 |
| 20260901024122 | 22 | 187 | 3.2 | 6.4 | 0.00 | 0.00 | 0.00 | 96 | 1016.6 |
| 20260901023122 | 22 | 164 | 1.6 | 4.8 | 0.00 | 0.00 | 0.00 | 97 | 1016.6 |
| 20260901022122 | 22 | 156 | 3.2 | 6.4 | 0.00 | 0.00 | 0.00 | 97 | 1016.7 |
| 20260901021121 | 22 | 162 | 1.6 | 4.8 | 0.00 | 0.00 | 0.00 | 98 | 1016.7 |
| 20260901020123 | 22 | 199 | 1.6 | 4.8 | 0.00 | 0.03 | 0.00 | 98 | 1016.7 |
| 20260901015122 | 22 | 200 | 3.2 | 4.8 | 0.00 | 0.03 | 0.00 | 98 | 1016.8 |
| 20260901014122 | 22 | 192 | 1.6 | 4.8 | 0.00 | 0.03 | 0.00 | 98 | 1016.8 |
| 20260901013142 | 22 | 234 | 1.6 | 4.8 | 0.00 | 0.03 | 0.00 | 98 | 1016.9 |
| 20260901012123 | 22 | 174 | 1.6 | 4.8 | 0.00 | 0.03 | 0.00 | 97 | 1016.8 |
| 20260901011122 | 22 | 193 | 3.2 | 6.4 | 0.00 | 0.03 | 0.00 | 95 | 1016.7 |
| 20260901010123 | 22 | 186 | 3.2 | 6.4 | 0.00 | 0.03 | 0.00 | 93 | 1016.7 |
| 20260901005142 | 22 | 199 | 1.6 | 4.8 | 0.00 | 0.03 | 0.00 | 92 | 1016.7 |
| 20260901004122 | 22 | 179 | 3.2 | 6.4 | 0.00 | 0.03 | 0.00 | 91 | 1016.6 |
| 20260901003122 | 22 | 222 | 1.6 | 6.4 | 0.00 | 0.03 | 0.00 | 91 | 1016.6 |
| 20260901002121 | 22 | 151 | 3.2 | 6.4 | 0.00 | 0.03 | 0.00 | 91 | 1016.6 |
| 20260901001122 | 22 | 152 | 3.2 | 6.4 | 0.00 | 0.03 | 0.00 | 89 | 1016.5 |
| 20260901000123 | 22 | 147 | 3.2 | 6.4 | 0.00 | 0.03 | 0.00 | 89 | 1016.5 |
| 20260831235123 | 22 | 125 | 3.2 | 4.8 | 0.00 | 0.03 | 0.00 | 88 | 1016.6 |
| 20260831234121 | 23 | 157 | 1.6 | 3.2 | 0.00 | 0.03 | 0.00 | 87 | 1016.7 |
| 20260831233121 | 23 | 155 | 1.6 | 3.2 | 0.00 | 0.03 | 0.00 | 86 | 1016.8 |
| 20260831232122 | 23 | 142 | 1.6 | 4.8 | 0.00 | 0.03 | 0.00 | 84 | 1016.8 |
| 20260831231122 | 23 | 119 | 1.6 | 3.2 | 0.00 | 0.03 | 0.00 | 84 | 1016.8 |
| 20260831230142 | 23 | 160 | 3.2 | 4.8 | 0.00 | 0.03 | 0.00 | 84 | 1016.8 |
| 20260831225143 | 23 | 218 | 3.2 | 6.4 | 0.00 | 0.03 | 0.00 | 84 | 1016.8 |
| 20260831224124 | 23 | 207 | 1.6 | 4.8 | 0.00 | 0.03 | 0.00 | 84 | 1016.7 |
| 20260831223124 | 23 | 144 | 3.2 | 4.8 | 0.00 | 0.03 | 0.00 | 83 | 1016.8 |
| 20260831222121 | 23 | 188 | 3.2 | 6.4 | 0.00 | 0.03 | 0.00 | 81 | 1016.9 |
| 20260831221122 | 24 | 150 | 3.2 | 6.4 | 0.00 | 0.03 | 0.00 | 82 | 1017.1 |
| 20260831220121 | 23 | 125 | 4.8 | 6.4 | 0.00 | 0.03 | 0.00 | 83 | 1017.1 |
| 20260831215122 | 24 | 232 | 4.8 | 8.0 | 0.00 | 0.03 | 0.00 | 82 | 1016.9 |
| 20260831214121 | 24 | 190 | 3.2 | 6.4 | 0.00 | 0.03 | 0.00 | 82 | 1017.0 |
| 20260831213144 | 24 | 190 | 3.2 | 6.4 | 0.00 | 0.03 | 0.00 | 83 | 1017.2 |
| 20260831212124 | 24 | 246 | 4.8 | 8.0 | 0.00 | 0.03 | 0.00 | 82 | 1017.2 |
| 20260831211125 | 24 | 117 | 3.2 | 8.0 | 0.00 | 0.03 | 0.00 | 82 | 1017.0 |
| 20260831210123 | 24 | 206 | 4.8 | 8.0 | 0.00 | 0.03 | 0.00 | 80 | 1017.0 |
| 20260831205122 | 24 | 134 | 3.2 | 6.4 | 0.00 | 0.03 | 0.00 | 80 | 1017.1 |
| 20260831204123 | 24 | 279 | 6.4 | 9.7 | 0.00 | 0.03 | 0.00 | 79 | 1017.1 |
| 20260831203123 | 24 | 209 | 4.8 | 8.0 | 0.00 | 0.03 | 0.00 | 79 | 1017.2 |
| 20260831202143 | 25 | 192 | 3.2 | 9.7 | 0.00 | 0.03 | 0.00 | 78 | 1017.4 |
| 20260831201124 | 25 | 177 | 3.2 | 6.4 | 0.00 | 0.03 | 0.00 | 76 | 1017.4 |
| 20260831200125 | 25 | 237 | 4.8 | 8.0 | 0.00 | 0.03 | 0.00 | 76 | 1017.4 |
| 20260831195125 | 25 | 214 | 4.8 | 9.7 | 0.00 | 0.03 | 0.00 | 76 | 1017.5 |
| 20260831194121 | 25 | 163 | 4.8 | 8.0 | 0.00 | 0.03 | 0.00 | 74 | 1017.4 |
| 20260831193121 | 25 | 181 | 4.8 | 9.7 | 0.00 | 0.03 | 0.00 | 73 | 1017.5 |
| 20260831192121 | 25 | 232 | 4.8 | 8.0 | 0.00 | 0.03 | 0.00 | 72 | 1017.7 |
| 20260831191121 | 26 | 151 | 4.8 | 11.3 | 0.00 | 0.03 | 0.00 | 71 | 1017.7 |